星链-31948 (STARLINK-31948 )

导读

STARLINK-31948是美国SpaceX星链星座部署的卫星,于2024年6月1日发射入轨,隶属于SpaceX打造的星链互联网卫星星座项目,旨在为全球提供低延迟、高速率的卫星宽带互联网服务。星链通过批量发射低轨卫星,逐步完成星座组网,持续扩容全球卫星互联网覆盖能力,推动卫星通信服务普及。

基本信息
目录编号:
59941
目录名称:
STARLINK-31948
国际标识:
2024-106V
轨道中心:
EARTH
卫星名称:
星链-31948
卫星全名:
星链-31948 (STARLINK-31948 )
卫星状态:
在轨 (已飞行833 天)
发射日期:
2024-06-01 UTC
国别 :
美国 (US)
星等 :
--
该卫星已列入 空间交会检测服务 Space Conjunction Data Service (SCDS) ,当前飞行风险评估等级: 高风险
轨道信息
数据来源 国际轨道数据
星历时间: 2026-09-11T16:25:07+0800
17小时前
查看轨道信息
半长轴: 6861.208km
偏心率: 0.0001261
轨道倾角: 43.006°
近地点辐角 241.136°
升交点赤经 0.752°
平近点角 118.936°
近地点: 482.205km
远地点: 483.937km
周期: 94.267分钟
每日圈数: 15.275729
详细信息
固有亮度:
5
最大亮度:
1.5
卫星平台:
Starlink v2.0 mini
覆盖范围:
全球
运营商:
太空探索技术公司
运营商所在国:
美国
制造商(研发单位):
太空探索技术公司
制造商所在国:
美国
使用方式:
暂无
卫星简介
星链(Starlink)计划是由太空探索技术公司(SpaceX)提出的一个巨型低轨卫星互联网星座项目,计划在2019年至2024年间在太空搭建由约1.2万颗卫星组成的“星链”网络,其中1584颗将部署在地球上空550千米处的近地轨道,并从2020年开始工作。该卫星仍在工作。
2D轨道图
3D轨道图
轨道高度分析图
轨道倾角分析图
轨道综合分析图
查看轨道综合分析图
与全量物体交会距离演化趋势
与全量物体交会风险概率演化趋势